Precipitable_Water
0.80 0.80 0.80 0.80 0.78 0.78 0.78 0.78 0.78 0.78 0.78 0.76 0.76 0.76 0.76 0.76 0.74 0.74 0.74 0.74 0.74 0.74 0.74 0.74 0.74 0.74 0.74 0.76 0.76 0.76 0.78 0.78 0.78 0.80 0.80 0.80 0.80 0.80 0.80 0.82 0.82 0.82 0.82 0.82 0.82 0.82 0.84 0.84 0.86 0.89 0.91 0.91 0.91 0.91 0.91 0.91 0.91 0.89 0.87 0.86 0.91 0.93 0.93 0.93 0.95 0.97 0.99 1.01 1.01
0.80 0.80 0.80 0.78 0.78 0.78 0.78 0.78 0.78 0.78 0.78 0.76 0.76 0.76 0.76 0.76 0.74 0.74 0.74 0.74 0.74 0.74 0.74 0.74 0.76 0.76 0.76 0.76 0.78 0.78 0.78 0.80 0.80 0.80 0.80 0.82 0.82 0.84 0.84 0.84 0.84 0.86 0.86 0.86 0.86 0.86 0.86 0.87 0.91 0.93 0.93 0.95 0.95 0.93 0.95 0.95 0.95 0.93 0.91 0.91 0.95 0.99 0.99 0.99 0.99 1.01 1.03 1.05 1.01
0.80 0.80 0.80 0.78 0.78 0.78 0.76 0.76 0.76 0.78 0.78 0.78 0.78 0.76 0.76 0.76 0.74 0.74 0.74 0.74 0.76 0.76 0.76 0.74 0.76 0.76 0.76 0.78 0.78 0.80 0.80 0.80 0.80 0.80 0.82 0.84 0.84 0.86 0.86 0.87 0.87 0.89 0.89 0.89 0.89 0.89 0.89 0.89 0.93 0.95 0.95 0.95 0.95 0.93 0.95 0.97 0.99 0.97 0.95 0.95 0.97 0.99 1.01 1.01 1.01 1.03 1.05 1.05 1.03
0.80 0.80 0.78 0.78 0.78 0.76 0.76 0.76 0.76 0.76 0.76 0.76 0.76 0.76 0.76 0.76 0.74 0.74 0.76 0.76 0.76 0.76 0.76 0.76 0.76 0.78 0.78 0.78 0.78 0.80 0.80 0.80 0.80 0.82 0.82 0.84 0.84 0.86 0.86 0.87 0.87 0.89 0.89 0.91 0.91 0.93 0.93 0.95 0.95 0.95 0.95 0.95 0.95 0.97 0.97 0.99 1.01 1.01 1.01 1.01 1.01 1.01 1.01 1.01 1.01 1.01 1.03 1.03 1.03
0.78 0.78 0.78 0.78 0.78 0.78 0.78 0.76 0.76 0.76 0.76 0.76 0.76 0.76 0.74 0.76 0.76 0.76 0.76 0.76 0.76 0.76 0.76 0.76 0.76 0.78 0.78 0.80 0.80 0.80 0.80 0.80 0.82 0.82 0.84 0.84 0.86 0.86 0.87 0.87 0.89 0.89 0.91 0.93 0.93 0.93 0.95 0.97 0.97 0.97 0.99 0.99 1.01 1.01 1.03 1.03 1.03 1.03 1.01 1.01 1.01 1.01 0.99 0.99 0.99 1.01 1.01 1.03 1.03
0.78 0.78 0.78 0.78 0.78 0.78 0.78 0.78 0.76 0.76 0.76 0.76 0.74 0.74 0.74 0.74 0.74 0.74 0.74 0.74 0.74 0.76 0.76 0.78 0.78 0.78 0.78 0.78 0.78 0.78 0.80 0.80 0.82 0.82 0.84 0.84 0.86 0.86 0.86 0.87 0.89 0.89 0.91 0.93 0.93 0.95 0.95 0.97 0.97 0.97 0.99 1.01 1.03 1.03 1.05 1.05 1.03 1.01 1.01 0.97 0.99 0.99 0.99 0.97 0.97 0.99 0.99 1.01 1.01
0.78 0.78 0.78 0.78 0.78 0.78 0.76 0.76 0.76 0.76 0.76 0.74 0.74 0.72 0.72 0.74 0.74 0.74 0.74 0.74 0.76 0.76 0.76 0.78 0.78 0.78 0.78 0.78 0.78 0.78 0.78 0.80 0.80 0.82 0.82 0.84 0.84 0.84 0.86 0.86 0.87 0.89 0.89 0.91 0.93 0.95 0.95 0.97 0.97 0.97 0.99 0.99 0.99 1.01 1.01 1.01 1.01 0.99 0.97 0.97 0.99 0.99 0.99 0.99 0.99 0.99 1.01 1.01 1.01
0.76 0.76 0.76 0.76 0.76 0.76 0.76 0.76 0.76 0.74 0.74 0.74 0.72 0.72 0.72 0.74 0.74 0.74 0.76 0.76 0.76 0.76 0.76 0.78 0.78 0.78 0.78 0.78 0.78 0.78 0.78 0.78 0.80 0.80 0.82 0.82 0.82 0.84 0.86 0.86 0.86 0.86 0.87 0.89 0.91 0.93 0.95 0.97 0.97 0.97 0.97 0.95 0.95 0.95 0.97 0.97 0.97 0.97 0.95 0.93 0.95 0.97 0.99 1.01 1.03 1.05 1.03 1.01 1.01
0.74 0.74 0.74 0.74 0.74 0.74 0.74 0.74 0.74 0.72 0.72 0.72 0.72 0.72 0.72 0.74 0.74 0.74 0.76 0.76 0.76 0.78 0.78 0.78 0.78 0.78 0.78 0.78 0.78 0.78 0.78 0.78 0.78 0.80 0.80 0.80 0.80 0.82 0.84 0.84 0.84 0.84 0.86 0.87 0.87 0.89 0.91 0.93 0.95 0.95 0.95 0.93 0.93 0.93 0.97 0.97 0.97 0.95 0.93 0.91 0.93 0.95 0.97 1.01 1.03 1.03 1.03 1.01 0.97
0.72 0.70 0.70 0.70 0.70 0.70 0.70 0.72 0.72 0.72 0.70 0.72 0.72 0.72 0.74 0.74 0.74 0.76 0.76 0.76 0.78 0.78 0.76 0.78 0.78 0.78 0.78 0.78 0.78 0.78 0.78 0.78 0.78 0.78 0.78 0.80 0.78 0.78 0.80 0.80 0.82 0.82 0.84 0.84 0.84 0.86 0.87 0.89 0.89 0.89 0.91 0.93 0.93 0.95 0.97 0.97 0.97 0.95 0.93 0.93 0.93 0.93 0.95 0.97 0.99 1.01 1.01 0.99 0.97
0.70 0.70 0.68 0.68 0.70 0.70 0.70 0.70 0.70 0.70 0.70 0.70 0.70 0.72 0.72 0.74 0.74 0.76 0.78 0.78 0.76 0.76 0.76 0.78 0.78 0.78 0.78 0.78 0.78 0.78 0.78 0.78 0.78 0.78 0.78 0.78 0.80 0.80 0.80 0.78 0.78 0.78 0.78 0.78 0.80 0.80 0.82 0.82 0.82 0.82 0.84 0.87 0.89 0.93 0.95 0.97 0.95 0.93 0.93 0.91 0.93 0.93 0.95 0.97 0.99 0.99 0.97 0.93 0.93
0.68 0.68 0.68 0.68 0.68 0.68 0.68 0.68 0.68 0.68 0.68 0.70 0.70 0.70 0.72 0.72 0.74 0.76 0.76 0.76 0.76 0.76 0.78 0.78 0.78 0.78 0.78 0.78 0.78 0.78 0.78 0.78 0.78 0.78 0.78 0.78 0.80 0.80 0.80 0.80 0.78 0.78 0.78 0.78 0.78 0.78 0.78 0.78 0.78 0.78 0.80 0.82 0.84 0.86 0.89 0.91 0.87 0.86 0.86 0.86 0.86 0.86 0.87 0.89 0.91 0.91 0.89 0.84 0.84
0.68 0.66 0.66 0.66 0.68 0.66 0.66 0.66 0.68 0.68 0.68 0.68 0.70 0.70 0.70 0.72 0.74 0.76 0.76 0.76 0.76 0.76 0.78 0.78 0.78 0.78 0.78 0.78 0.78 0.78 0.78 0.78 0.78 0.78 0.78 0.78 0.78 0.80 0.80 0.78 0.78 0.78 0.78 0.78 0.78 0.78 0.78 0.76 0.78 0.78 0.78 0.78 0.80 0.82 0.82 0.80 0.80 0.80 0.80 0.80 0.80 0.80 0.80 0.80 0.82 0.80 0.76 0.76 0.78
0.66 0.66 0.66 0.66 0.66 0.66 0.66 0.66 0.66 0.66 0.68 0.68 0.68 0.70 0.70 0.72 0.74 0.74 0.76 0.76 0.76 0.76 0.76 0.78 0.78 0.78 0.78 0.78 0.78 0.78 0.78 0.78 0.78 0.80 0.80 0.80 0.80 0.78 0.78 0.78 0.80 0.78 0.78 0.78 0.78 0.78 0.76 0.76 0.76 0.76 0.76 0.76 0.78 0.78 0.78 0.76 0.76 0.76 0.74 0.74 0.74 0.76 0.76 0.76 0.76 0.76 0.74 0.72 0.74
0.66 0.66 0.66 0.66 0.66 0.66 0.66 0.66 0.66 0.66 0.66 0.68 0.68 0.70 0.70 0.72 0.72 0.74 0.74 0.74 0.76 0.76 0.76 0.76 0.76 0.78 0.78 0.78 0.78 0.78 0.80 0.80 0.80 0.80 0.80 0.80 0.80 0.80 0.78 0.78 0.78 0.78 0.78 0.76 0.76 0.76 0.76 0.76 0.74 0.74 0.74 0.74 0.74 0.76 0.76 0.74 0.74 0.74 0.74 0.74 0.74 0.74 0.74 0.74 0.76 0.74 0.72 0.72 0.72
0.64 0.66 0.66 0.66 0.66 0.66 0.66 0.66 0.66 0.66 0.66 0.68 0.68 0.70 0.70 0.72 0.72 0.74 0.74 0.74 0.74 0.74 0.74 0.74 0.74 0.76 0.78 0.78 0.78 0.78 0.78 0.78 0.78 0.78 0.78 0.78 0.78 0.78 0.78 0.76 0.76 0.76 0.76 0.76 0.76 0.76 0.74 0.74 0.74 0.74 0.74 0.72 0.74 0.72 0.72 0.72 0.74 0.74 0.72 0.72 0.72 0.74 0.74 0.74 0.72 0.72 0.70 0.70 0.70
0.64 0.66 0.66 0.66 0.66 0.64 0.64 0.64 0.66 0.66 0.68 0.68 0.68 0.70 0.70 0.72 0.72 0.72 0.74 0.74 0.74 0.74 0.74 0.74 0.74 0.74 0.76 0.76 0.78 0.78 0.78 0.78 0.78 0.78 0.78 0.78 0.78 0.78 0.76 0.76 0.76 0.76 0.76 0.74 0.74 0.74 0.74 0.74 0.74 0.74 0.72 0.72 0.72 0.72 0.70 0.70 0.70 0.70 0.70 0.70 0.70 0.70 0.72 0.72 0.68 0.68 0.68 0.68 0.68
0.64 0.66 0.66 0.66 0.64 0.64 0.64 0.64 0.66 0.66 0.66 0.68 0.68 0.70 0.70 0.72 0.72 0.72 0.74 0.74 0.74 0.72 0.72 0.72 0.74 0.74 0.74 0.74 0.76 0.76 0.76 0.76 0.76 0.76 0.76 0.76 0.76 0.76 0.76 0.76 0.76 0.76 0.74 0.74 0.74 0.74 0.74 0.74 0.74 0.72 0.72 0.72 0.72 0.70 0.70 0.70 0.68 0.68 0.68 0.68 0.68 0.68 0.68 0.68 0.66 0.66 0.66 0.66 0.66
0.64 0.66 0.64 0.64 0.64 0.64 0.64 0.64 0.64 0.66 0.66 0.66 0.68 0.68 0.70 0.70 0.70 0.72 0.72 0.72 0.74 0.74 0.72 0.72 0.74 0.74 0.74 0.74 0.76 0.76 0.76 0.76 0.76 0.76 0.76 0.76 0.76 0.76 0.74 0.74 0.74 0.74 0.74 0.74 0.74 0.74 0.72 0.72 0.72 0.72 0.72 0.72 0.72 0.70 0.70 0.68 0.68 0.68 0.68 0.66 0.66 0.66 0.66 0.66 0.68 0.68 0.68 0.68 0.68
0.64 0.64 0.64 0.64 0.64 0.64 0.64 0.64 0.64 0.64 0.66 0.66 0.68 0.68 0.68 0.70 0.70 0.70 0.72 0.72 0.72 0.72 0.74 0.72 0.74 0.74 0.74 0.76 0.76 0.76 0.76 0.76 0.76 0.76 0.76 0.76 0.74 0.74 0.74 0.74 0.74 0.74 0.74 0.74 0.74 0.74 0.74 0.74 0.74 0.72 0.72 0.72 0.70 0.70 0.70 0.68 0.68 0.66 0.66 0.66 0.66 0.66 0.66 0.68 0.68 0.68 0.68 0.68 0.68
0.66 0.66 0.64 0.64 0.64 0.64 0.64 0.64 0.64 0.64 0.66 0.66 0.66 0.68 0.68 0.68 0.70 0.70 0.70 0.72 0.72 0.72 0.72 0.72 0.72 0.72 0.74 0.74 0.76 0.76 0.76 0.76 0.76 0.76 0.76 0.74 0.74 0.74 0.74 0.74 0.72 0.72 0.72 0.74 0.74 0.74 0.74 0.74 0.74 0.74 0.72 0.72 0.72 0.70 0.70 0.68 0.68 0.66 0.66 0.66 0.66 0.66 0.68 0.70 0.70 0.70 0.70 0.70 0.70
0.66 0.66 0.66 0.64 0.64 0.64 0.64 0.64 0.64 0.64 0.64 0.66 0.66 0.66 0.68 0.68 0.68 0.70 0.70 0.72 0.72 0.72 0.72 0.72 0.72 0.72 0.72 0.74 0.74 0.76 0.76 0.76 0.76 0.74 0.74 0.74 0.72 0.72 0.72 0.72 0.72 0.72 0.72 0.74 0.74 0.74 0.74 0.74 0.74 0.74 0.74 0.72 0.72 0.72 0.70 0.70 0.68 0.68 0.68 0.68 0.68 0.68 0.70 0.70 0.70 0.70 0.70 0.70 0.70
0.66 0.66 0.66 0.64 0.64 0.64 0.64 0.64 0.64 0.64 0.64 0.64 0.66 0.66 0.66 0.66 0.68 0.68 0.70 0.70 0.70 0.70 0.70 0.72 0.72 0.72 0.72 0.72 0.74 0.74 0.74 0.74 0.74 0.72 0.72 0.72 0.72 0.72 0.72 0.72 0.72 0.72 0.72 0.74 0.74 0.74 0.74 0.74 0.74 0.74 0.74 0.74 0.72 0.72 0.70 0.70 0.70 0.70 0.68 0.70 0.70 0.70 0.70 0.72 0.72 0.72 0.70 0.70 0.70
0.66 0.66 0.64 0.64 0.64 0.64 0.64 0.64 0.64 0.64 0.64 0.64 0.64 0.64 0.66 0.66 0.66 0.68 0.68 0.70 0.70 0.70 0.70 0.70 0.70 0.72 0.72 0.72 0.72 0.72 0.72 0.70 0.70 0.70 0.70 0.72 0.72 0.72 0.72 0.72 0.72 0.72 0.74 0.74 0.74 0.74 0.74 0.74 0.74 0.74 0.74 0.74 0.74 0.72 0.72 0.72 0.72 0.72 0.70 0.70 0.70 0.70 0.70 0.70 0.70 0.70 0.70 0.70 0.70
0.66 0.66 0.64 0.64 0.64 0.64 0.64 0.62 0.62 0.62 0.64 0.64 0.64 0.64 0.64 0.66 0.66 0.66 0.66 0.68 0.68 0.70 0.70 0.70 0.70 0.70 0.70 0.72 0.72 0.70 0.70 0.70 0.68 0.68 0.68 0.70 0.70 0.72 0.72 0.72 0.72 0.74 0.74 0.74 0.76 0.76 0.76 0.76 0.76 0.76 0.76 0.74 0.74 0.74 0.74 0.74 0.74 0.72 0.72 0.72 0.72 0.70 0.70 0.70 0.70 0.70 0.70 0.70 0.70
0.66 0.66 0.64 0.64 0.64 0.64 0.62 0.62 0.62 0.62 0.62 0.64 0.64 0.64 0.64 0.64 0.64 0.66 0.66 0.66 0.68 0.68 0.70 0.70 0.70 0.70 0.70 0.70 0.70 0.70 0.68 0.68 0.70 0.70 0.70 0.70 0.70 0.70 0.72 0.72 0.74 0.74 0.74 0.76 0.76 0.76 0.76 0.78 0.76 0.76 0.76 0.74 0.74 0.74 0.74 0.74 0.74 0.74 0.72 0.72 0.70 0.70 0.70 0.68 0.68 0.68 0.68 0.68 0.68
0.66 0.66 0.64 0.64 0.64 0.62 0.62 0.62 0.62 0.62 0.62 0.62 0.62 0.64 0.64 0.64 0.64 0.64 0.66 0.66 0.68 0.68 0.70 0.70 0.70 0.70 0.70 0.70 0.70 0.70 0.70 0.70 0.70 0.70 0.70 0.70 0.70 0.70 0.72 0.72 0.72 0.74 0.76 0.76 0.76 0.76 0.78 0.78 0.78 0.76 0.76 0.76 0.74 0.74 0.74 0.72 0.72 0.72 0.72 0.72 0.70 0.70 0.68 0.68 0.66 0.66 0.66 0.66 0.66
0.66 0.66 0.64 0.64 0.64 0.62 0.62 0.62 0.62 0.62 0.62 0.62 0.62 0.62 0.64 0.64 0.64 0.64 0.64 0.64 0.66 0.68 0.68 0.68 0.70 0.70 0.70 0.70 0.70 0.70 0.70 0.70 0.70 0.72 0.72 0.72 0.72 0.72 0.72 0.72 0.72 0.74 0.74 0.76 0.76 0.76 0.78 0.78 0.78 0.76 0.76 0.76 0.76 0.74 0.74 0.72 0.72 0.72 0.72 0.70 0.70 0.70 0.68 0.66 0.66 0.64 0.62 0.62 0.64
0.66 0.66 0.66 0.64 0.64 0.64 0.64 0.64 0.62 0.62 0.62 0.62 0.62 0.62 0.64 0.64 0.62 0.64 0.64 0.64 0.66 0.66 0.66 0.68 0.68 0.68 0.68 0.68 0.68 0.68 0.70 0.70 0.72 0.72 0.72 0.72 0.72 0.72 0.72 0.72 0.72 0.74 0.74 0.76 0.76 0.76 0.76 0.76 0.76 0.76 0.76 0.76 0.76 0.74 0.74 0.72 0.72 0.72 0.72 0.70 0.70 0.68 0.66 0.64 0.64 0.64 0.62 0.62 0.62
0.70 0.68 0.66 0.64 0.64 0.64 0.64 0.64 0.64 0.64 0.64 0.64 0.62 0.62 0.62 0.62 0.62 0.62 0.62 0.62 0.64 0.64 0.66 0.66 0.66 0.66 0.66 0.66 0.68 0.68 0.68 0.70 0.70 0.72 0.72 0.72 0.70 0.72 0.72 0.72 0.74 0.74 0.76 0.76 0.76 0.76 0.76 0.76 0.76 0.76 0.76 0.76 0.76 0.74 0.74 0.74 0.72 0.72 0.70 0.68 0.66 0.66 0.64 0.64 0.64 0.64 0.62 0.62 0.60
0.70 0.68 0.68 0.66 0.66 0.64 0.64 0.64 0.64 0.64 0.64 0.64 0.64 0.62 0.62 0.62 0.62 0.62 0.62 0.62 0.64 0.64 0.66 0.66 0.66 0.66 0.66 0.66 0.66 0.68 0.68 0.68 0.70 0.70 0.70 0.70 0.70 0.70 0.72 0.72 0.74 0.74 0.76 0.76 0.76 0.76 0.76 0.76 0.76 0.76 0.76 0.76 0.76 0.76 0.74 0.74 0.74 0.72 0.68 0.66 0.64 0.64 0.64 0.62 0.62 0.60 0.58 0.54 0.52
0.70 0.70 0.68 0.66 0.66 0.66 0.66 0.66 0.64 0.64 0.64 0.64 0.64 0.62 0.62 0.62 0.62 0.62 0.62 0.62 0.64 0.64 0.64 0.64 0.64 0.64 0.64 0.66 0.66 0.66 0.66 0.68 0.68 0.70 0.70 0.70 0.70 0.70 0.72 0.72 0.74 0.74 0.76 0.76 0.76 0.76 0.76 0.76 0.76 0.76 0.76 0.76 0.74 0.74 0.72 0.72 0.70 0.68 0.66 0.64 0.62 0.62 0.58 0.56 0.54 0.50 0.46 0.44 0.36
0.70 0.70 0.68 0.66 0.66 0.66 0.66 0.66 0.66 0.64 0.64 0.64 0.64 0.62 0.62 0.62 0.62 0.62 0.62 0.62 0.64 0.64 0.64 0.64 0.64 0.64 0.64 0.64 0.64 0.66 0.66 0.66 0.68 0.70 0.70 0.70 0.70 0.70 0.72 0.72 0.72 0.74 0.74 0.74 0.74 0.74 0.74 0.74 0.74 0.74 0.72 0.72 0.70 0.70 0.68 0.66 0.66 0.64 0.62 0.60 0.58 0.54 0.50 0.46 0.42 0.40 0.38 0.36 0.30
0.70 0.70 0.68 0.68 0.66 0.66 0.66 0.66 0.66 0.64 0.64 0.64 0.64 0.62 0.62 0.62 0.62 0.62 0.62 0.62 0.64 0.64 0.64 0.64 0.64 0.64 0.64 0.66 0.66 0.66 0.66 0.68 0.68 0.68 0.70 0.70 0.70 0.70 0.70 0.72 0.72 0.74 0.74 0.74 0.74 0.72 0.72 0.72 0.72 0.70 0.68 0.68 0.66 0.66 0.64 0.64 0.64 0.60 0.54 0.52 0.48 0.46 0.42 0.36 0.34 0.32 0.30 0.30 0.28
0.72 0.70 0.68 0.68 0.68 0.66 0.66 0.66 0.66 0.64 0.64 0.64 0.62 0.62 0.62 0.62 0.62 0.62 0.62 0.64 0.64 0.64 0.64 0.64 0.64 0.66 0.66 0.66 0.66 0.66 0.66 0.68 0.68 0.68 0.70 0.70 0.70 0.70 0.70 0.70 0.72 0.72 0.72 0.72 0.72 0.70 0.70 0.70 0.68 0.68 0.66 0.64 0.64 0.64 0.62 0.62 0.58 0.50 0.44 0.40 0.38 0.34 0.32 0.32 0.30 0.30 0.28 0.28 0.26
0.72 0.70 0.70 0.68 0.68 0.66 0.66 0.66 0.66 0.64 0.64 0.64 0.62 0.62 0.62 0.62 0.62 0.62 0.64 0.64 0.64 0.64 0.64 0.64 0.64 0.64 0.64 0.64 0.66 0.66 0.66 0.68 0.68 0.70 0.70 0.70 0.70 0.70 0.70 0.70 0.72 0.72 0.70 0.70 0.70 0.68 0.68 0.68 0.66 0.66 0.64 0.64 0.62 0.60 0.56 0.54 0.42 0.36 0.34 0.32 0.30 0.28 0.28 0.28 0.28 0.28 0.26 0.26 0.26
0.72 0.72 0.70 0.68 0.68 0.68 0.66 0.66 0.64 0.64 0.64 0.64 0.62 0.62 0.62 0.62 0.62 0.62 0.64 0.64 0.64 0.62 0.62 0.64 0.64 0.64 0.64 0.64 0.64 0.66 0.66 0.68 0.68 0.68 0.70 0.70 0.70 0.70 0.70 0.70 0.70 0.70 0.70 0.70 0.68 0.68 0.66 0.66 0.66 0.64 0.62 0.60 0.58 0.54 0.48 0.40 0.32 0.28 0.26 0.26 0.24 0.24 0.24 0.24 0.24 0.24 0.24 0.24 0.24
0.74 0.72 0.72 0.70 0.68 0.68 0.66 0.66 0.64 0.64 0.64 0.64 0.64 0.64 0.64 0.62 0.62 0.64 0.64 0.64 0.64 0.62 0.62 0.64 0.64 0.64 0.64 0.64 0.64 0.66 0.66 0.68 0.68 0.68 0.68 0.70 0.70 0.70 0.70 0.68 0.68 0.68 0.68 0.68 0.66 0.66 0.64 0.64 0.62 0.58 0.56 0.52 0.46 0.42 0.36 0.24 0.24 0.23 0.23 0.23 0.23 0.23 0.23 0.23 0.23 0.23 0.23 0.24 0.24
0.74 0.72 0.72 0.70 0.68 0.68 0.68 0.66 0.66 0.64 0.64 0.64 0.64 0.64 0.64 0.64 0.64 0.64 0.64 0.64 0.64 0.64 0.64 0.64 0.64 0.64 0.64 0.64 0.64 0.66 0.66 0.66 0.66 0.66 0.66 0.66 0.68 0.68 0.68 0.66 0.66 0.66 0.66 0.66 0.64 0.62 0.60 0.56 0.52 0.48 0.44 0.40 0.36 0.32 0.28 0.23 0.23 0.21 0.21 0.21 0.21 0.21 0.21 0.23 0.23 0.23 0.24 0.24 0.24
0.74 0.74 0.72 0.70 0.70 0.68 0.68 0.66 0.66 0.66 0.66 0.64 0.64 0.64 0.64 0.64 0.64 0.64 0.64 0.64 0.64 0.64 0.64 0.64 0.64 0.66 0.66 0.66 0.64 0.64 0.64 0.66 0.66 0.66 0.66 0.66 0.66 0.66 0.66 0.64 0.64 0.62 0.62 0.60 0.56 0.54 0.50 0.46 0.42 0.36 0.34 0.30 0.28 0.24 0.23 0.23 0.21 0.21 0.21 0.21 0.21 0.21 0.23 0.23 0.23 0.24 0.26 0.26 0.26
0.74 0.74 0.72 0.70 0.70 0.68 0.68 0.66 0.66 0.66 0.66 0.64 0.64 0.64 0.64 0.64 0.64 0.66 0.66 0.64 0.64 0.66 0.66 0.66 0.66 0.66 0.66 0.66 0.64 0.64 0.64 0.64 0.64 0.64 0.64 0.64 0.64 0.64 0.64 0.62 0.60 0.58 0.56 0.54 0.48 0.44 0.40 0.34 0.32 0.28 0.26 0.24 0.24 0.23 0.23 0.21 0.21 0.21 0.21 0.21 0.23 0.23 0.23 0.24 0.24 0.26 0.26 0.26 0.28
Wind_Speed
30 30 30 30 30 30 30 30 30 31 31 31 31 31 31 31 31 31 31 31 31 31 31 31 31 31 31 32 32 32 32 32 32 32 32 32 32 32 32 32 32 32 32 32 31 31 31 31 31 30 30 30 30 30 30 29 29 29 29 29 28 28 27 26 26 26 26 26 26
30 30 30 30 30 30 30 30 30 31 31 31 31 31 31 31 31 31 31 31 31 31 31 31 31 31 31 32 31 31 31 31 31 31 31 31 31 31 31 31 31 31 31 31 31 30 30 30 30 30 30 29 29 29 29 29 29 29 28 28 27 26 26 26 26 26 26 26 26
30 29 29 29 29 30 30 30 30 30 31 31 31 31 31 31 31 31 31 31 31 31 31 32 31 31 31 31 31 31 31 31 31 31 31 31 31 31 31 30 30 30 30 30 30 30 29 29 29 29 29 29 29 28 28 28 28 27 26 26 26 25 25 26 26 25 25 26 26
29 29 29 29 30 30 30 30 31 31 31 31 31 31 31 31 31 31 31 32 32 32 32 32 32 31 31 31 31 31 31 31 31 31 31 31 30 30 30 30 30 30 30 29 29 29 29 28 28 28 28 28 28 27 27 27 26 26 25 25 25 25 25 26 26 26 26 26 26
29 29 30 30 30 31 31 31 31 31 31 32 32 32 32 32 32 32 32 32 32 32 32 32 32 32 32 32 31 31 31 31 31 31 30 30 30 30 30 30 29 29 29 29 28 28 28 28 27 27 27 27 27 26 26 26 25 25 25 25 25 25 26 26 26 26 26 26 26
30 30 30 31 31 31 32 32 32 32 32 33 33 33 33 33 33 33 33 33 32 32 32 32 32 32 32 32 31 31 31 31 31 31 30 30 30 30 29 29 29 29 28 28 28 27 27 27 27 27 26 26 26 26 25 25 25 25 25 25 26 26 26 26 26 26 26 26 26
30 31 31 32 32 32 32 33 33 33 33 33 33 33 33 33 33 33 33 33 33 33 33 32 32 32 32 32 32 31 31 31 31 31 30 30 30 30 29 29 29 28 28 28 27 27 27 27 26 26 26 26 26 26 25 25 25 25 25 26 26 26 26 26 26 26 26 25 25
31 32 32 32 33 33 33 33 33 34 34 34 34 34 34 34 34 34 33 33 33 33 33 33 32 32 32 32 32 32 31 31 31 31 30 30 30 30 29 29 28 28 28 27 27 26 26 26 26 26 26 26 26 26 26 25 25 25 25 26 26 26 26 26 26 25 25 25 25
32 32 33 33 33 33 34 34 34 34 34 34 34 34 34 34 34 34 34 33 33 33 33 33 33 32 32 32 32 32 31 31 31 31 30 30 30 29 29 29 28 28 27 27 27 26 26 26 26 26 25 25 26 25 25 25 25 25 25 26 26 26 26 25 25 25 25 25 25
32 33 33 33 33 34 34 34 34 34 34 34 34 34 34 34 34 34 34 34 33 33 33 33 33 33 32 32 32 32 31 31 31 31 30 30 30 29 29 28 28 28 27 27 26 26 26 26 25 25 25 25 25 25 25 25 25 25 25 25 25 25 25 25 25 25 25 25 25
33 33 33 33 33 34 34 34 34 34 34 34 34 34 34 34 34 34 34 34 33 33 33 33 33 33 32 32 32 32 31 31 31 31 30 30 30 29 29 29 28 28 27 27 26 26 26 26 26 25 25 25 25 25 25 25 25 25 25 25 25 25 24 24 25 25 25 25 25
33 33 33 33 34 34 34 34 34 34 34 34 34 34 34 34 34 34 34 34 33 33 33 33 33 32 32 32 32 31 31 31 31 31 31 30 30 30 29 29 29 28 28 27 27 26 26 26 26 26 26 26 26 26 25 25 25 25 25 25 25 25 25 25 25 25 25 25 25
33 33 33 33 34 34 34 34 34 34 34 34 34 34 34 34 34 34 33 33 33 33 33 33 33 32 32 32 32 32 31 31 31 31 31 31 30 30 30 29 29 29 28 28 27 27 27 27 27 26 26 26 26 26 26 26 26 25 25 25 25 25 25 25 25 25 25 25 25
33 33 33 33 33 33 33 34 34 34 34 34 34 34 34 34 33 33 33 33 33 33 33 33 33 32 32 32 32 32 32 31 31 31 31 31 30 30 30 30 29 29 29 28 28 28 27 27 27 27 27 27 27 27 26 26 26 26 26 25 25 25 25 25 25 25 25 24 24
32 32 33 33 33 33 33 33 33 33 33 33 33 33 33 33 33 33 33 33 33 33 33 33 32 32 32 32 32 32 32 32 32 31 31 31 31 30 30 30 30 29 29 29 28 28 28 28 28 28 27 27 27 27 27 27 26 26 26 26 25 25 25 25 25 25 24 24 24
31 32 32 32 32 32 32 33 33 33 33 33 33 33 33 33 32 32 32 32 32 32 32 32 32 32 32 32 32 32 32 32 32 31 31 31 31 31 30 30 30 30 29 29 29 28 28 28 28 28 28 28 28 27 27 27 27 26 26 26 26 25 25 25 25 25 24 24 24
31 31 31 31 31 32 32 32 32 32 32 32 32 32 32 32 32 31 31 31 31 31 31 31 31 31 31 32 32 32 32 32 32 31 31 31 31 31 30 30 30 30 29 29 29 29 29 28 28 28 28 28 28 27 27 27 27 27 26 26 26 26 26 25 25 25 24 24 24
30 30 31 31 31 31 31 31 31 31 31 31 31 31 31 31 31 30 30 31 31 31 31 31 31 31 31 31 31 31 31 32 31 31 31 31 31 30 30 30 30 30 30 29 29 29 29 29 29 28 28 28 28 28 27 27 27 27 26 26 26 26 25 25 25 25 24 24 24
30 30 30 31 31 31 31 31 31 31 30 30 30 30 30 30 30 30 30 30 30 30 30 30 30 31 31 31 31 31 31 31 31 31 31 31 31 31 30 30 30 30 30 30 30 30 29 29 29 29 28 28 28 28 27 27 27 27 26 26 26 25 25 25 24 24 24 23 23
30 30 30 30 30 30 30 30 30 30 30 30 29 29 29 29 29 29 29 29 29 29 30 30 30 30 30 31 31 31 31 31 31 31 31 31 31 31 31 30 30 30 30 30 30 30 30 29 29 29 28 28 28 27 27 27 26 26 26 25 25 24 24 24 23 23 23 23 22
30 30 30 30 30 30 30 30 30 29 29 29 28 28 28 28 28 28 28 29 29 29 29 29 30 30 30 30 30 31 31 31 31 31 31 31 31 31 31 30 30 30 30 30 30 30 30 30 29 29 28 28 28 27 27 26 26 25 25 24 24 24 23 23 23 22 22 22 21
29 30 30 30 30 30 29 29 29 29 28 28 28 28 28 28 28 28 28 28 28 29 29 29 29 29 30 30 30 30 30 30 30 30 30 30 31 31 31 31 30 30 31 30 30 30 30 29 29 29 28 28 27 27 26 26 25 24 24 23 23 23 22 22 22 21 21 21 20
29 29 29 29 29 29 29 29 29 29 28 28 28 28 28 27 28 28 28 28 28 28 29 29 29 29 29 29 30 30 30 30 30 30 30 30 30 31 31 30 30 30 30 30 30 30 29 29 28 28 28 27 27 26 25 25 24 24 23 23 22 22 21 21 21 20 20 19 19
29 29 29 29 29 29 29 29 29 29 28 28 28 28 27 27 27 27 27 28 28 28 28 28 28 28 29 29 29 29 29 29 29 29 30 30 30 30 30 30 30 30 30 29 29 29 28 28 27 27 27 26 26 25 25 24 24 23 23 22 22 21 21 20 20 19 18 18 17
29 29 29 29 29 29 29 29 29 28 28 28 28 28 27 27 27 27 27 27 28 28 28 28 28 28 28 28 28 28 29 29 29 29 29 30 30 30 30 30 29 29 29 28 28 28 27 27 26 26 25 25 25 25 24 24 23 23 22 21 20 20 19 19 18 18 17 17 16
28 28 28 28 28 28 28 28 28 28 28 28 28 27 27 27 27 27 27 27 27 27 27 27 27 27 27 27 28 28 28 28 29 29 29 29 29 29 29 29 28 28 28 27 27 26 26 25 25 25 24 24 24 24 23 23 22 21 20 20 19 19 18 18 17 17 16 16 15
28 28 28 28 28 28 28 27 27 27 27 27 27 27 27 27 27 27 27 27 27 26 26 26 26 26 26 27 27 27 28 28 28 28 28 28 28 28 28 27 27 27 26 26 25 25 24 24 23 23 23 23 23 22 22 21 20 20 19 19 18 18 17 17 16 16 15 15 15
27 27 27 27 27 27 27 27 27 27 27 27 27 27 27 27 26 26 26 26 26 26 26 26 25 25 26 26 26 27 27 27 27 27 27 27 27 26 26 26 26 25 25 25 24 24 23 23 22 22 22 22 21 21 20 19 19 19 18 18 17 17 17 16 16 15 15 14 14
27 27 26 26 26 26 26 26 26 26 26 26 26 26 26 26 26 26 26 26 26 25 25 25 25 25 25 25 25 25 26 26 26 26 26 26 25 25 25 24 24 24 24 23 23 22 22 22 21 21 21 21 20 20 19 19 18 18 18 17 17 16 16 15 15 15 14 14 14
26 26 26 26 26 26 26 26 26 26 26 26 26 26 26 26 26 26 26 26 25 25 25 25 25 24 24 24 24 24 25 25 25 25 25 25 24 24 23 23 23 23 22 22 22 22 22 21 21 21 20 20 20 19 19 18 18 17 17 16 16 15 15 15 14 14 14 14 14
26 25 25 25 25 25 25 25 25 25 25 26 26 26 26 26 26 26 26 25 25 25 24 24 24 24 24 24 23 23 23 24 24 24 24 23 23 22 22 22 21 21 21 21 21 21 21 20 20 20 19 19 19 18 17 17 16 16 15 15 14 14 14 14 14 14 14 13 13
25 25 25 25 25 25 25 25 25 25 25 25 25 25 25 25 25 25 25 25 24 24 24 24 23 23 23 23 23 23 23 23 23 23 23 22 22 21 21 20 20 20 20 20 19 19 19 18 18 18 17 17 16 16 15 15 14 14 14 14 13 13 13 13 13 13 13 13 13
25 25 25 25 25 25 25 24 24 25 25 25 25 25 25 25 25 25 25 24 24 24 23 23 23 23 22 22 22 22 22 22 22 22 22 21 21 20 20 19 19 18 18 17 17 17 17 16 16 16 15 15 15 14 14 14 13 13 13 13 13 13 13 13 13 13 13 13 13
25 25 25 25 25 24 24 24 24 24 24 25 25 25 25 25 24 24 24 24 23 23 23 23 22 22 22 22 22 22 22 21 21 21 21 20 20 19 19 18 18 17 16 16 15 15 15 15 14 14 14 14 14 13 13 13 13 13 13 13 13 13 13 13 13 13 13 13 13
25 25 25 25 24 24 24 24 24 24 24 24 24 24 24 24 24 24 23 23 23 23 23 22 22 22 22 21 21 21 21 21 20 20 20 19 19 18 18 17 17 16 15 15 14 14 14 14 13 13 13 13 13 13 13 13 13 13 13 13 13 13 13 13 13 13 13 13 13
25 25 25 25 24 24 24 24 24 24 24 24 24 24 24 24 23 23 23 22 22 22 22 22 21 21 21 21 21 20 20 19 19 19 18 18 18 17 17 16 16 15 15 14 14 14 13 13 13 13 13 13 13 13 13 13 13 13 13 13 13 13 13 13 13 13 13 13 13
25 25 25 24 24 24 24 24 24 24 24 24 24 23 23 23 23 22 22 22 22 22 21 21 21 21 21 20 20 20 19 18 18 17 17 17 16 16 16 15 15 15 14 14 14 14 14 14 13 13 13 13 13 13 13 13 13 13 12 12 13 13 13 13 13 13 14 14 14
25 25 25 24 24 24 24 24 24 24 23 23 23 23 23 22 22 22 22 22 21 21 21 21 21 20 20 20 19 19 18 18 17 16 16 15 15 15 14 14 14 14 14 14 14 14 14 14 14 14 13 13 13 13 13 13 12 12 12 12 13 13 13 13 13 13 13 14 14
25 25 25 25 24 24 24 24 24 24 23 23 23 22 22 22 22 21 21 21 21 21 21 20 20 20 20 19 19 18 18 17 16 16 15 15 14 14 13 13 13 13 13 13 13 13 13 13 13 13 13 13 13 12 12 12 12 12 12 12 13 13 13 13 13 13 13 13 13
25 25 25 25 25 25 24 24 24 23 23 23 22 22 22 22 21 21 21 21 21 21 20 20 20 19 19 19 18 18 17 17 16 16 15 14 14 13 13 13 13 13 13 13 13 13 13 13 13 13 13 12 12 12 12 12 12 12 12 13 13 13 13 13 13 13 13 13 14
25 25 25 25 25 25 25 24 24 24 23 23 22 22 22 21 21 21 21 20 20 20 20 19 19 19 19 18 18 17 17 16 16 16 15 15 14 13 13 13 13 13 13 13 13 13 13 13 13 13 12 12 12 12 12 12 12 13 13 13 13 13 13 13 13 13 13 13 14
Wind_Direction
262 263 264 264 265 266 267 268 268 269 270 270 271 272 272 273 273 274 274 275 275 276 276 277 277 278 279 279 280 280 280 280 280 280 280 280 280 279 279 279 279 278 278 277 277 277 276 275 275 275 275 275 275 275 275 276 276 277 277 277 277 277 276 276 276 277 277 278 279
261 262 264 264 265 266 267 268 268 269 270 270 271 272 272 273 273 274 274 275 275 276 277 277 278 278 279 279 280 280 280 280 280 280 280 280 279 279 279 279 279 278 278 278 277 277 276 276 276 275 275 275 275 275 276 276 276 276 276 276 276 276 275 275 276 277 278 278 279
261 263 264 265 266 266 267 268 268 269 270 271 271 272 273 273 274 274 275 275 276 276 277 277 278 278 278 279 279 279 279 279 279 279 279 279 279 279 279 279 279 279 278 278 278 277 277 276 276 276 276 276 276 276 276 276 276 275 275 275 275 275 276 276 276 277 278 278 279
262 263 264 265 266 267 267 268 269 270 271 271 272 273 273 273 274 274 275 275 276 276 277 277 277 277 278 278 278 278 278 278 279 279 279 278 278 278 278 279 279 279 279 278 278 277 277 276 276 276 276 276 276 275 275 275 275 274 274 274 275 275 276 276 277 277 277 278 279
262 263 264 265 266 267 268 269 270 270 271 272 272 273 273 273 274 274 275 275 276 276 276 276 276 277 277 277 277 277 277 278 278 278 278 278 278 278 278 278 279 279 279 278 278 277 277 276 275 275 275 275 274 274 274 274 274 274 274 275 275 276 277 277 277 277 277 277 278
263 264 265 266 267 268 269 269 270 271 271 272 272 272 273 273 273 274 274 274 275 275 275 275 275 276 276 276 276 276 276 277 277 277 278 278 277 277 278 278 278 278 278 278 278 277 276 275 275 274 274 274 274 274 274 274 274 275 275 276 276 277 277 277 277 277 277 277 277
264 265 266 267 268 269 269 270 271 271 271 272 272 272 272 273 273 273 273 273 274 274 274 274 274 275 275 275 275 275 276 276 276 277 277 277 277 277 277 277 278 278 278 278 277 277 276 275 274 274 274 274 275 275 275 275 275 275 275 275 276 277 277 277 277 277 277 276 276
264 265 267 268 268 269 270 270 271 271 271 272 272 272 272 273 273 273 273 273 273 273 273 273 273 274 273 274 274 274 275 275 276 276 276 276 277 277 277 277 277 278 277 277 276 276 275 275 275 274 275 275 275 274 274 274 274 274 275 275 276 277 277 277 277 276 276 275 274
265 266 267 268 269 270 270 271 271 271 271 272 272 272 272 272 272 272 273 272 272 273 273 273 272 272 273 273 273 274 274 275 275 276 276 276 276 277 277 277 277 277 277 277 276 275 275 275 275 275 275 275 274 274 274 274 274 275 275 275 276 277 277 277 277 276 275 274 273
266 267 268 269 270 270 271 271 271 271 272 272 272 272 272 273 272 272 272 272 272 272 272 272 272 272 272 273 273 274 274 275 275 276 276 277 277 277 277 277 277 278 278 277 276 275 275 275 275 275 275 275 275 275 275 276 276 276 276 276 276 277 277 276 276 274 273 272 272
266 268 269 270 270 271 271 272 272 272 272 273 273 273 273 273 273 272 272 272 272 272 272 272 272 272 273 273 274 274 274 275 275 276 276 277 277 277 277 277 277 277 277 277 277 276 276 276 276 276 276 276 276 276 276 276 276 276 276 276 276 276 276 274 273 272 272 272 272
268 269 270 271 271 271 272 272 272 273 273 273 273 273 273 273 273 273 273 272 272 272 272 272 273 273 273 273 274 274 274 275 275 276 276 276 276 276 277 277 277 277 276 276 276 276 276 276 276 277 277 277 277 277 276 276 276 276 276 277 277 276 275 274 273 272 272 272 272
269 270 271 271 272 272 272 272 273 273 274 274 274 274 274 274 273 273 273 273 273 273 273 273 273 273 273 273 274 274 274 275 275 275 276 276 276 276 276 276 276 276 276 276 276 276 276 276 276 277 277 277 277 277 277 277 277 277 277 277 277 276 275 274 273 272 272 272 272
269 270 271 271 272 272 273 273 274 274 274 275 274 274 274 274 274 274 274 273 273 273 273 273 273 273 273 273 274 274 274 274 275 275 275 276 276 276 276 276 275 275 275 276 276 276 276 276 276 276 276 276 276 277 277 277 277 277 277 276 276 275 274 274 273 272 272 272 272
269 270 271 272 272 273 273 274 274 275 275 275 275 274 274 274 274 274 273 273 273 274 274 274 273 273 273 273 273 274 274 274 275 275 275 275 276 276 276 275 275 275 275 275 275 275 275 275 275 275 275 275 276 276 277 277 277 277 277 276 276 275 274 273 273 272 272 272 271
270 270 271 272 273 273 273 274 274 275 275 275 275 274 274 274 273 273 273 273 273 273 274 273 273 273 273 273 273 274 274 274 274 275 275 275 275 275 275 275 275 274 274 274 274 275 275 275 275 275 275 275 276 276 277 277 277 277 277 276 276 275 274 273 273 272 272 271 271
270 271 272 272 273 273 274 274 275 275 275 275 274 274 274 273 273 273 272 272 272 273 273 273 273 273 273 273 273 273 273 274 274 274 274 274 274 274 274 274 274 273 273 273 273 273 274 274 274 274 275 275 276 276 276 276 276 276 276 275 275 274 273 273 272 272 272 271 271
270 271 272 273 273 274 274 274 275 275 275 274 274 274 273 273 273 272 272 272 272 272 272 272 272 272 272 272 272 273 273 273 273 273 273 273 273 273 273 273 273 272 272 272 272 272 273 273 273 274 274 275 275 275 275 275 275 275 274 274 273 272 272 271 271 271 271 270 270
270 271 272 273 274 274 274 274 275 275 274 274 274 273 273 273 272 272 272 272 272 271 271 272 272 272 272 272 272 272 272 272 272 272 272 272 272 272 272 272 271 271 271 271 271 271 272 272 273 273 273 274 274 274 274 274 274 273 272 272 271 270 270 270 269 269 269 269 269
270 272 272 273 274 274 274 274 274 274 274 274 274 273 273 273 272 272 272 272 272 271 271 271 272 272 272 272 272 272 272 272 271 271 271 271 271 271 271 271 270 270 270 270 270 270 271 271 272 272 273 273 273 273 273 273 272 271 271 270 269 269 269 268 268 268 268 268 268
271 272 273 273 274 274 274 274 274 274 274 273 273 273 273 273 273 272 272 272 272 272 272 271 272 272 272 272 272 271 271 271 271 271 271 271 271 270 270 270 270 270 270 270 270 270 270 271 271 271 272 272 272 272 271 271 270 270 269 269 268 268 267 267 267 267 267 267 267
271 272 273 273 274 274 273 273 273 273 273 273 273 272 272 273 273 273 272 272 272 272 272 272 272 272 271 272 272 272 271 271 271 271 271 271 271 271 270 270 270 270 270 270 270 270 270 270 270 271 270 270 270 270 269 269 268 268 267 267 267 267 267 267 267 267 267 266 265
272 272 273 273 273 273 273 273 273 273 273 273 272 272 272 272 272 272 272 272 272 272 272 272 271 271 271 271 271 271 271 271 270 271 271 271 271 271 271 270 270 270 270 270 270 270 270 270 270 269 269 268 268 267 267 266 266 266 266 266 266 266 266 267 267 266 265 264 263
272 272 273 273 273 273 273 273 273 273 272 272 272 272 272 272 272 272 272 272 272 272 272 271 271 271 271 271 271 271 270 270 270 270 271 271 271 271 270 270 270 270 270 270 270 269 269 269 268 268 267 266 265 265 264 264 264 265 265 265 265 265 266 266 265 264 263 262 262
272 272 273 273 273 273 273 272 272 272 272 272 272 272 272 272 272 272 272 272 272 272 272 271 271 271 271 271 271 270 270 270 270 270 270 271 271 270 270 270 270 270 270 270 269 268 268 267 266 265 265 264 264 264 264 264 264 264 264 264 264 264 264 264 263 262 261 261 261
272 272 272 272 272 272 272 272 272 271 271 272 272 272 272 272 272 272 272 272 272 272 271 271 271 271 271 271 271 270 270 270 270 270 270 270 270 270 270 270 270 269 269 268 267 266 266 265 264 263 263 263 263 264 265 265 265 264 264 263 263 262 261 260 260 259 259 259 259
271 271 271 272 272 271 271 271 271 271 271 271 271 271 271 271 271 271 271 271 271 272 272 272 271 271 271 271 271 270 270 270 270 270 270 270 270 270 269 269 269 268 268 266 265 264 263 263 262 262 262 263 264 264 264 264 264 263 262 261 260 259 258 257 257 257 257 257 257
270 271 271 271 271 270 270 270 270 270 270 270 270 270 270 270 270 270 271 271 271 271 271 271 271 271 271 271 270 270 270 271 271 271 270 270 270 269 269 268 268 267 266 264 262 261 261 260 260 260 261 262 262 262 262 261 261 260 259 258 257 256 255 255 255 255 255 255 256
270 270 270 270 270 269 269 269 269 269 269 269 269 269 269 269 270 270 270 271 271 271 271 271 271 270 270 270 270 270 270 271 271 270 270 269 269 268 268 267 266 265 264 262 260 259 259 258 258 258 259 259 260 259 259 258 258 257 256 255 254 254 253 253 253 253 253 254 255
269 269 269 269 269 269 269 268 268 268 269 269 269 269 269 269 270 270 270 270 270 270 270 270 270 270 270 270 270 271 271 271 270 270 269 269 268 267 267 266 265 264 262 260 259 258 257 257 256 257 257 257 257 257 257 256 255 255 254 253 252 251 251 251 251 251 252 253 255
269 269 269 269 268 268 268 268 268 268 268 268 268 268 269 269 269 270 270 270 270 270 270 270 270 270 270 270 271 271 271 271 270 270 269 268 267 266 266 265 264 263 262 260 259 258 257 256 256 256 256 255 255 255 255 254 253 252 251 250 249 248 249 250 250 251 252 253 254
268 268 268 268 268 268 268 268 268 268 267 268 268 268 268 269 269 269 269 269 269 270 269 269 269 269 270 270 271 271 271 271 270 270 269 267 266 265 264 263 263 262 261 260 259 258 257 257 256 255 255 254 253 253 252 250 249 248 247 246 246 246 247 249 250 251 252 253 254
268 268 268 268 268 268 268 267 267 267 267 267 267 267 268 268 268 268 268 269 269 269 269 269 269 269 269 270 270 270 270 270 270 269 268 266 265 263 262 261 261 260 259 258 258 257 256 256 255 253 252 251 249 248 246 245 244 243 243 243 244 245 247 249 251 252 253 254 254
267 267 267 267 267 267 267 267 267 266 266 266 266 267 267 267 267 267 267 268 268 269 269 269 268 269 269 269 269 269 269 269 269 268 267 265 263 261 259 258 258 257 255 254 254 254 253 251 250 248 246 245 244 243 241 240 241 241 241 242 243 245 247 248 250 251 252 254 255
266 266 266 266 266 266 266 266 266 266 265 265 266 266 266 266 266 266 267 267 268 269 269 269 268 268 268 268 269 269 269 268 267 266 265 263 261 259 257 255 254 252 251 250 249 248 247 245 244 242 241 240 240 240 239 239 240 241 241 242 243 245 246 247 249 250 251 253 256
265 265 265 265 266 266 266 265 265 265 265 265 265 265 265 265 266 266 266 267 268 268 268 268 268 267 268 268 268 268 268 268 267 265 264 261 259 257 254 252 251 249 247 246 245 243 242 240 239 238 238 238 239 240 240 241 241 242 242 243 244 245 246 248 249 250 252 254 256
264 264 264 264 265 265 265 265 265 264 264 264 264 265 265 265 265 265 266 267 267 268 267 267 267 267 266 266 266 266 266 266 265 264 263 260 257 255 252 250 248 246 245 243 242 241 240 238 238 238 238 239 240 241 241 241 242 243 243 244 245 246 248 249 251 252 254 255 257
263 263 263 263 264 264 264 264 264 264 264 264 264 264 264 264 264 265 266 266 267 267 267 267 266 265 264 264 263 263 263 263 262 262 261 259 257 254 251 249 247 246 244 243 241 240 239 239 239 239 239 240 240 241 241 242 242 243 244 245 247 248 249 251 253 254 256 257 259
262 262 261 262 262 263 263 263 264 263 264 264 264 263 263 263 264 264 265 266 267 267 267 266 265 264 262 261 260 260 259 259 258 258 257 256 254 252 249 248 246 245 244 242 241 240 239 239 239 239 239 240 240 240 241 242 242 243 245 246 248 249 251 253 255 257 258 259 260
262 261 261 261 261 262 262 262 262 263 263 263 263 263 262 262 263 264 265 266 266 267 266 265 264 262 260 259 257 256 255 255 254 254 253 253 251 250 248 246 245 244 243 242 241 240 239 239 238 238 239 240 241 241 242 243 243 245 246 248 249 251 253 255 257 258 260 261 261
262 262 261 261 261 261 261 261 261 261 262 262 262 262 262 262 262 263 264 265 266 266 265 264 262 260 258 256 255 253 252 251 250 250 250 249 248 246 245 244 243 242 241 241 240 239 238 237 237 237 238 240 241 242 243 244 245 246 247 249 251 253 254 256 258 259 261 261 262